When you browse on this site, cookies collect data to enhance your experience and personalize the content and advertising you see.
Visit our Privacy Policy to learn more. By continuing to use the site, you agree to this use of cookies and data.
  • En España
  • Lista de países
  • Para 7 días
  • Temperatura del agua
  • Mapa Satelital
  • El tiempo en el mapa
  • Informadores
  • user-avatar
    Iniciar sesión

    Tiempo cada hora Baydiki

    Hoy, 18 Junio, Martes

    Tiempo Temperatura Precipitaciones Viento Presión Humedad
    00:00 +16°C° 0 mm 2 mps 741 mmHg 86%
    01:00 +16°C° 0 mm 2 mps 741 mmHg 87%
    02:00 +15°C° 0 mm 2 mps 740 mmHg 89%
    03:00 +15°C° 0 mm 1 mps 740 mmHg 90%
    04:00 +16°C° 0 mm 1 mps 740 mmHg 89%
    05:00 +16°C° 0 mm 1 mps 740 mmHg 89%
    06:00 +18°C° 0 mm 1 mps 740 mmHg 88%
    07:00 +19°C° 0 mm 2 mps 740 mmHg 83%
    08:00 +20°C° 0 mm 2 mps 740 mmHg 79%
    09:00 +23°C° 0 mm 2 mps 740 mmHg 74%
    10:00 +24°C° 0.3 mm 2 mps 740 mmHg 71%
    11:00 +25°C° 0.3 mm 2 mps 740 mmHg 68%
    12:00 +26°C° 0.3 mm 3 mps 740 mmHg 65%
    13:00 +26°C° 0.5 mm 3 mps 740 mmHg 63%
    14:00 +26°C° 0.5 mm 3 mps 740 mmHg 62%
    15:00 +26°C° 0.5 mm 3 mps 740 mmHg 60%
    16:00 +26°C° 0.1 mm 3 mps 740 mmHg 63%
    17:00 +26°C° 0.1 mm 2 mps 740 mmHg 65%
    18:00 +26°C° 0.1 mm 2 mps 740 mmHg 67%
    19:00 +24°C° 0.1 mm 2 mps 740 mmHg 72%
    20:00 +21°C° 0.1 mm 2 mps 740 mmHg 76%
    21:00 +19°C° 0.1 mm 3 mps 740 mmHg 81%
    22:00 +18°C° 0 mm 3 mps 740 mmHg 83%
    23:00 +17°C° 0 mm 3 mps 741 mmHg 85%

    Mañana, 19 Junio, Miércoles

    Tiempo Temperatura Precipitaciones Viento Presión Humedad
    00:00 +16°C° 0 mm 3 mps 741 mmHg 87%
    01:00 +16°C° 0 mm 3 mps 741 mmHg 88%
    02:00 +15°C° 0 mm 2 mps 741 mmHg 88%
    03:00 +15°C° 0 mm 2 mps 741 mmHg 88%
    04:00 +15°C° 0 mm 2 mps 742 mmHg 86%
    05:00 +15°C° 0 mm 2 mps 742 mmHg 84%
    06:00 +15°C° 0 mm 2 mps 742 mmHg 82%
    07:00 +17°C° 0 mm 2 mps 742 mmHg 77%
    08:00 +19°C° 0 mm 2 mps 742 mmHg 72%
    09:00 +21°C° 0 mm 2 mps 742 mmHg 68%
    10:00 +22°C° 0 mm 3 mps 743 mmHg 63%
    11:00 +24°C° 0 mm 3 mps 743 mmHg 58%
    12:00 +25°C° 0 mm 3 mps 743 mmHg 52%
    13:00 +26°C° 0 mm 3 mps 743 mmHg 52%
    14:00 +26°C° 0 mm 3 mps 743 mmHg 51%
    15:00 +26°C° 0 mm 2 mps 743 mmHg 51%
    16:00 +26°C° 0 mm 2 mps 743 mmHg 54%
    17:00 +26°C° 0 mm 2 mps 742 mmHg 57%
    18:00 +26°C° 0 mm 1 mps 742 mmHg 61%
    19:00 +24°C° 0 mm 1 mps 742 mmHg 65%
    20:00 +22°C° 0 mm 1 mps 742 mmHg 69%
    21:00 +18°C° 0 mm 0 mps 742 mmHg 73%
    22:00 +19°C° 0 mm 1 mps 743 mmHg 75%
    23:00 +18°C° 0 mm 1 mps 743 mmHg 78%

    Pasado mañana, 20 Junio, Jueves

    Tiempo Temperatura Precipitaciones Viento Presión Humedad
    00:00 +18°C° 0 mm 1 mps 743 mmHg 81%
    01:00 +16°C° 0 mm 1 mps 743 mmHg 82%
    02:00 +16°C° 0 mm 1 mps 743 mmHg 83%
    03:00 +15°C° 0 mm 1 mps 743 mmHg 84%
    04:00 +16°C° 0 mm 1 mps 743 mmHg 83%
    05:00 +18°C° 0 mm 1 mps 744 mmHg 82%
    06:00 +19°C° 0 mm 1 mps 744 mmHg 81%
    07:00 +20°C° 0 mm 1 mps 744 mmHg 75%
    08:00 +22°C° 0 mm 1 mps 744 mmHg 70%
    09:00 +24°C° 0 mm 1 mps 744 mmHg 64%
    10:00 +25°C° 0 mm 1 mps 744 mmHg 58%
    11:00 +26°C° 0 mm 1 mps 744 mmHg 53%
    12:00 +26°C° 0 mm 0 mps 744 mmHg 47%
    13:00 +28°C° 0 mm 1 mps 744 mmHg 46%
    14:00 +28°C° 0 mm 1 mps 744 mmHg 46%
    15:00 +28°C° 0 mm 1 mps 744 mmHg 45%
    16:00 +28°C° 0 mm 1 mps 744 mmHg 50%
    17:00 +27°C° 0 mm 1 mps 743 mmHg 54%
    18:00 +27°C° 0 mm 1 mps 743 mmHg 59%
    19:00 +25°C° 0 mm 1 mps 743 mmHg 62%
    20:00 +23°C° 0 mm 1 mps 743 mmHg 64%
    21:00 +21°C° 0 mm 1 mps 743 mmHg 67%
    22:00 +20°C° 0 mm 1 mps 743 mmHg 69%
    23:00 +19°C° 0 mm 1 mps 744 mmHg 71%

    21 Junio, Viernes

    Tiempo Temperatura Precipitaciones Viento Presión Humedad
    00:00 +19°C° 0 mm 1 mps 744 mmHg 73%
    01:00 +18°C° 0 mm 1 mps 744 mmHg 75%
    02:00 +18°C° 0 mm 1 mps 744 mmHg 77%
    03:00 +18°C° 0 mm 1 mps 744 mmHg 79%
    04:00 +18°C° 0 mm 1 mps 744 mmHg 79%
    05:00 +19°C° 0 mm 1 mps 744 mmHg 80%
    06:00 +20°C° 0 mm 1 mps 744 mmHg 81%
    07:00 +21°C° 0 mm 1 mps 745 mmHg 76%
    08:00 +23°C° 0 mm 1 mps 745 mmHg 72%
    09:00 +25°C° 0 mm 1 mps 745 mmHg 67%
    10:00 +25°C° 0 mm 2 mps 745 mmHg 63%
    11:00 +26°C° 0 mm 2 mps 745 mmHg 59%
    12:00 +27°C° 0 mm 3 mps 745 mmHg 55%
    13:00 +27°C° 0 mm 3 mps 745 mmHg 56%
    14:00 +27°C° 0 mm 3 mps 744 mmHg 57%
    15:00 +27°C° 0 mm 3 mps 744 mmHg 58%
    16:00 +27°C° 0 mm 3 mps 744 mmHg 61%
    17:00 +27°C° 0 mm 2 mps 744 mmHg 63%
    18:00 +27°C° 0 mm 2 mps 744 mmHg 66%
    19:00 +25°C° 0 mm 2 mps 744 mmHg 70%
    20:00 +23°C° 0 mm 2 mps 744 mmHg 74%
    21:00 +21°C° 0 mm 1 mps 744 mmHg 78%
    22:00 +20°C° 0 mm 2 mps 744 mmHg 80%
    23:00 +19°C° 0 mm 2 mps 744 mmHg 82%

    22 Junio, Sábado

    Tiempo Temperatura Precipitaciones Viento Presión Humedad
    00:00 +19°C° 0 mm 2 mps 744 mmHg 84%
    01:00 +18°C° 0 mm 2 mps 744 mmHg 84%
    02:00 +18°C° 0 mm 3 mps 744 mmHg 84%
    03:00 +18°C° 0 mm 3 mps 744 mmHg 84%
    04:00 +18°C° 0 mm 3 mps 744 mmHg 84%
    05:00 +19°C° 0 mm 3 mps 744 mmHg 85%
    06:00 +19°C° 0 mm 3 mps 744 mmHg 85%
    07:00 +21°C° 0 mm 3 mps 744 mmHg 81%
    08:00 +22°C° 0 mm 4 mps 744 mmHg 77%
    09:00 +25°C° 0 mm 4 mps 744 mmHg 73%
    10:00 +26°C° 0 mm 4 mps 744 mmHg 69%
    11:00 +27°C° 0 mm 4 mps 744 mmHg 65%
    12:00 +28°C° 0 mm 5 mps 744 mmHg 62%
    13:00 +28°C° 0 mm 5 mps 744 mmHg 61%
    14:00 +28°C° 0 mm 5 mps 743 mmHg 60%
    15:00 +28°C° 0 mm 5 mps 743 mmHg 60%
    16:00 +28°C° 0 mm 5 mps 743 mmHg 63%
    17:00 +28°C° 0 mm 4 mps 743 mmHg 67%
    18:00 +28°C° 0 mm 4 mps 743 mmHg 71%
    19:00 +26°C° 0 mm 4 mps 743 mmHg 75%
    20:00 +25°C° 0 mm 3 mps 743 mmHg 80%
    21:00 +22°C° 0 mm 3 mps 743 mmHg 84%
    22:00 +22°C° 0 mm 3 mps 743 mmHg 85%
    23:00 +21°C° 0 mm 3 mps 743 mmHg 86%

    23 Junio, Domingo

    Tiempo Temperatura Precipitaciones Viento Presión Humedad
    00:00 +21°C° 0 mm 3 mps 743 mmHg 87%
    01:00 +20°C° 0 mm 3 mps 743 mmHg 89%
    02:00 +20°C° 0 mm 3 mps 743 mmHg 91%
    03:00 +19°C° 0 mm 3 mps 743 mmHg 93%
    04:00 +20°C° 0 mm 3 mps 743 mmHg 91%
    05:00 +20°C° 0 mm 3 mps 743 mmHg 89%
    06:00 +21°C° 0 mm 3 mps 743 mmHg 87%
    07:00 +22°C° 0 mm 3 mps 744 mmHg 83%
    08:00 +25°C° 0 mm 3 mps 744 mmHg 79%
    09:00 +26°C° 0 mm 3 mps 744 mmHg 74%
    10:00 +27°C° 0.4 mm 3 mps 744 mmHg 70%
    11:00 +28°C° 0.4 mm 4 mps 744 mmHg 66%
    12:00 +29°C° 0.4 mm 4 mps 744 mmHg 63%
    13:00 +29°C° 0.3 mm 4 mps 744 mmHg 62%
    14:00 +29°C° 0.3 mm 4 mps 744 mmHg 61%
    15:00 +30°C° 0.3 mm 3 mps 743 mmHg 60%
    16:00 +29°C° 0.2 mm 3 mps 743 mmHg 64%
    17:00 +29°C° 0.2 mm 3 mps 743 mmHg 68%
    18:00 +28°C° 0.2 mm 2 mps 743 mmHg 71%
    19:00 +27°C° 0.1 mm 2 mps 743 mmHg 75%
    20:00 +25°C° 0.1 mm 2 mps 743 mmHg 78%
    21:00 +24°C° 0.1 mm 2 mps 743 mmHg 81%
    22:00 +23°C° 0 mm 2 mps 743 mmHg 83%
    23:00 +21°C° 0 mm 2 mps 743 mmHg 85%
    Mostrar más